Regional Weather Roundup
Issued by NWS

Home | Current Version | Previous Version | Graphics & Text | Print | Product List | Glossary On
Versions: 1 2 3 4 5 6 7 8 9 10 11 12 13 14 15 16 17 18 19 20 21 22 23 24 25 26 27 28 29 30 31 32 33 34 35 36 37 38 39 40 41 42 43 44 45 46 47 48 49 50
663
ASUS45 KSLC 221810
RWRUT

UTAH REGIONAL WEATHER ROUNDUP
NATIONAL WEATHER SERVICE SALT LAKE CITY UT
1100 AM MST WED NOV 22 2017

UTZ001>011-023>025-221900-

NORTHERN UTAH

CITY           SKY/WX    TMP DP  RH WIND       PRES   REMARKS
BRIGHAM CITY   CLOUDY    54  39  56 CALM      30.45F
DUGWAY         MOSUNNY   56  38  52 S1        30.44F
6HR MIN TEMP:  30; 6HR MAX TEMP:  56;

HILL AFB       PTSUNNY   56  39  53 E5        30.45R
LOGAN          CLOUDY    53  41  63 CALM      30.43S
OGDEN          CLOUDY    58  40  51 CALM      30.44R
SALT LAKE CITY PTSUNNY   58  40  51 CALM      30.44S
TOOELE VALLEY  SUNNY     59  43  55 SE5       30.44S
WENDOVER       SUNNY     48  38  68 E5        30.45S
HEBER CITY       N/A     46  36  66 CALM      30.48F
WEST JORDAN    SUNNY     56  40  55 S13       30.45F

$$

UTZ011>015-024>027-221900-

CENTRAL/NORTHEAST UTAH

CITY           SKY/WX    TMP DP  RH WIND       PRES   REMARKS
PROVO AIRPORT  SUNNY     47  39  74 SW5       30.48S
MOAB/CANYONLAN SUNNY     52  24  33 CALM      30.46S
DELTA          SUNNY     52  34  50 CALM      30.47S
PRICE          SUNNY     50  27  40 CALM      30.47S
RICHFIELD      SUNNY     48  37  66 CALM      30.51F
ROOSEVELT      CLOUDY    50  30  46 CALM      30.50S
VERNAL         CLOUDY    52  32  46 CALM      30.47S

$$

UTZ013>016-019>022-027-221900-

SOUTHERN UTAH

CITY           SKY/WX    TMP DP  RH WIND       PRES   REMARKS
BRYCE CANYON   SUNNY     55  35  47 VRB5      30.54S
CEDAR CITY     SUNNY     54  36  50 E5        30.46F
MILFORD        SUNNY     55  37  50 CALM      30.46S
ST GEORGE      CLEAR     56  24  29 SW3       30.39F
HANKSVILLE     SUNNY     46  16  29 CALM      30.49S
KANAB          SUNNY     64  34  32 N2        30.46S
BLANDING         N/A     59  30  34 S3        30.51R

$$

REGIONAL REPORTS     COLORADO/ARIZONA

CITY           SKY/WX    TMP DP  RH WIND       PRES   REMARKS
CRAIG, CO      CLOUDY    43  36  76 CALM      30.49S
GRAND JUNCTION SUNNY     51  33  50 S8        30.48S
RIFLE, CO      CLOUDY    44  34  67 CALM      30.51F
MONTROSE, CO   CLOUDY    51  28  41 N3        30.51F
CORTEZ, CO     SUNNY     55  30  38 SW8       30.42F
COLORADO CITY    N/A     63  34  34 CALM      30.45S
PAGE, AZ       SUNNY     54  26  34 CALM      30.44S
GRAND CANYON   SUNNY     63  32  31 E7        30.48F
KINGMAN, AZ    SUNNY     72  29  20 N10       30.32F
FLAGSTAFF, AZ  SUNNY     60  31  33 E9        30.49S

$$

REGIONAL REPORTS    NEVADA/IDAHO/WYOMING

CITY           SKY/WX    TMP DP  RH WIND       PRES   REMARKS
LAS VEGAS, NV  SUNNY     70  36  28 CALM      30.30S
ELY, NY        SUNNY     56  36  47 S7        30.49S
ELKO, NV       FOG       39  38  96 SW3       30.46F VSB 1/4
POCATELLO, ID  CLOUDY    49  44  83 NE6       30.40R
BURLEY, ID     PTSUNNY   62  46  55 SW5       30.36R
FORT BRIDGER,    N/A     53  42  65 W15G24    30.51S
EVANSTON, WY   CLOUDY    50  41  71 SW16      30.50R
ROCK SPRINGS,  CLOUDY    50  39  66 SW16      30.46S
KEMMERER, WY   CLOUDY    43  37  81 SW5       30.49R

$$




USA.gov is the U.S. government's official web portal to all federal, state and local government web resources and services.